Burlington, IA

8:19 PM CST on January 16, 2018 (GMT -0600)
Burlington Regional

Weather History for KBRL - December, 2013

Change the Weather History Date:

Monday, December 23, 2013

  Actual Average Record
Temperature  
Mean Temperature 8 °F 27 °F  
Max Temperature 18 °F 35 °F 64 °F (1933)
Min Temperature -3 °F 19 °F -22 °F (1989)
Degree Days  
Heating Degree Days 57 38  
Month to date heating degree days 936 804  
Since 1 July heating degree days 2173 1877  
Cooling Degree Days 0 0  
Month to date cooling degree days 0 0  
Year to date cooling degree days 1115 1207  
Moisture  
Dew Point -2 °F    
Average Humidity 75    
Maximum Humidity 87    
Minimum Humidity 62    
Precipitation  
Precipitation 0.00 in 0.07 in 0.65 in (2015)
Month to date precipitation 0.68 1.65  
Year to date precipitation 33.07 38.04  
Sea Level Pressure  
Sea Level Pressure 30.49 in    
Wind  
Wind Speed 8 mph (WNW)    
Max Wind Speed 15 mph    
Max Gust Speed 22 mph    
Visibility 10 miles    
Events      
T = Trace of Precipitation, MM = Missing Value Source: NWS Daily Summary

Daily Weather History Graph

Daily Weather History Graph

Search for Another Location

Airport or City:

Trip Planner

Search our weather history database for the weather conditions in past years. The results will help you decide how hot, cold, wet, or windy it might be!

Date:

Astronomy

Dec. 23, 2013 Rise Set
Actual Time 7:26 AM CST 4:41 PM CST
Civil Twilight 6:55 AM CST 5:12 PM CST
Nautical Twilight 6:20 AM CST 5:46 PM CST
Astronomical Twilight 5:47 AM CST 6:20 PM CST
Moon 10:53 PM CST (12/23) 10:49 AM CST (12/23)
Length of Visible Light 10h 17m
Length of Day
9h 14m
Waning Gibbous, 68% of the Moon is Illuminated
Dec 23
Waning Gibbous
Dec 25
Last Quarter
Jan 1
New
Jan 7
First Quarter
Jan 15
Full

Hourly Weather History & Observations

Time (CST) Temp. Windchill Dew Point Humidity Pressure Visibility Wind Dir Wind Speed Gust Speed Precip Events Conditions
12:38 AM 18.0 °F 7.7 °F 12.0 °F 78% 30.26 in 10.0 mi WNW 8.1 mph - N/A   Overcast
12:53 AM 18.0 °F 7.7 °F 12.0 °F 78% 30.30 in 10.0 mi WNW 8.1 mph - N/A   Overcast
1:53 AM 15.1 °F 4.2 °F 9.0 °F 77% 30.32 in 10.0 mi NW 8.1 mph - N/A   Scattered Clouds
2:53 AM 10.0 °F -4.5 °F 3.9 °F 76% 30.37 in 10.0 mi NW 11.5 mph 19.6 mph N/A   Clear
3:53 AM 7.0 °F -7.5 °F 1.9 °F 80% 30.38 in 10.0 mi WNW 10.4 mph - N/A   Clear
4:53 AM 5.0 °F -5.6 °F -0.9 °F 76% 30.40 in 10.0 mi NW 5.8 mph - N/A   Clear
5:53 AM 3.0 °F -9.3 °F -2.0 °F 80% 30.43 in 10.0 mi WNW 6.9 mph - N/A   Clear
6:53 AM 1.9 °F -7.6 °F -2.9 °F 80% 30.46 in 10.0 mi West 4.6 mph - N/A   Clear
7:53 AM 1.9 °F -10.6 °F -2.9 °F 80% 30.48 in 10.0 mi WNW 6.9 mph - N/A   Scattered Clouds
8:53 AM 3.9 °F -11.3 °F -2.9 °F 73% 30.51 in 10.0 mi WNW 10.4 mph - N/A   Overcast
9:53 AM 5.0 °F -10.0 °F -2.9 °F 70% 30.53 in 10.0 mi WNW 10.4 mph 16.1 mph N/A   Partly Cloudy
10:53 AM 6.1 °F -6.8 °F -2.0 °F 69% 30.54 in 10.0 mi WNW 8.1 mph - N/A   Clear
11:53 AM 8.1 °F -5.3 °F -0.0 °F 70% 30.53 in 10.0 mi WNW 9.2 mph - N/A   Mostly Cloudy
12:53 PM 8.1 °F -6.2 °F -0.0 °F 70% 30.51 in 10.0 mi West 10.4 mph - N/A   Clear
1:53 PM 9.0 °F -5.1 °F -0.0 °F 67% 30.52 in 10.0 mi West 10.4 mph - N/A   Partly Cloudy
2:53 PM 9.0 °F -5.9 °F -0.9 °F 64% 30.52 in 10.0 mi WNW 11.5 mph - N/A   Clear
3:53 PM 9.0 °F -4.2 °F -2.0 °F 61% 30.54 in 10.0 mi WNW 9.2 mph - N/A   Clear
4:53 PM 5.0 °F -6.9 °F -6.0 °F 61% 30.57 in 10.0 mi NW 6.9 mph - N/A   Clear
5:53 PM 3.0 °F -8.0 °F -7.1 °F 63% 30.58 in 10.0 mi WNW 5.8 mph - N/A   Clear
6:53 PM 1.9 °F -7.6 °F -8.0 °F 63% 30.60 in 10.0 mi WNW 4.6 mph - N/A   Clear
7:53 PM -0.0 °F -9.9 °F -8.0 °F 69% 30.60 in 10.0 mi WSW 4.6 mph - N/A   Clear
8:53 PM -0.9 °F -14.1 °F -9.0 °F 69% 30.60 in 10.0 mi West 6.9 mph - N/A   Clear
9:53 PM -2.0 °F -15.4 °F -9.9 °F 69% 30.60 in 10.0 mi West 6.9 mph - N/A   Clear
10:53 PM -0.9 °F -12.7 °F -9.9 °F 66% 30.60 in 10.0 mi West 5.8 mph - N/A   Clear
11:53 PM -2.0 °F -15.4 °F -9.9 °F 69% 30.61 in 10.0 mi West 6.9 mph - N/A   Clear